Weather History for Monroe, MI

Change the Weather History Date:

Monday, April 23, 2012

  Actual Average Record
Temperature  
Mean Temperature 49 °F -  
Max Temperature 59 °F 61 °F 89 °F (1980)
Min Temperature 39 °F 41 °F 24 °F (1986)
Degree Days  
Heating Degree Days 16    
Moisture  
Dew Point 17 °F    
Average Humidity 32    
Maximum Humidity 56    
Minimum Humidity 14    
Precipitation  
Precipitation 0.00 in - - ()
Sea Level Pressure  
Sea Level Pressure 29.72 in    
Wind  
Wind Speed 13 mph (NNW)    
Max Wind Speed 30 mph    
Max Gust Speed 39 mph    
Visibility 10 miles    
Events      
Averages and records for this station are not official NWS values.
T = Trace of Precipitation, MM = Missing Value Source: NWS Daily Summary

Daily Weather History Graph

Daily Weather History Graph

Search for Another Location

Airport:

Trip Planner

Search our weather history database for the weather conditions in past years. The results will help you decide how hot, cold, wet, or windy it might be!

Date:

Astronomy

Apr. 23, 2012 Rise Set
Actual Time 6:40 AM EDT 8:24 PM EDT
Civil Twilight 6:10 AM EDT 8:53 PM EDT
Nautical Twilight 5:34 AM EDT 9:30 PM EDT
Astronomical Twilight 4:56 AM EDT 10:08 PM EDT
Moon 7:48 AM EDT (4/23) 10:55 PM EDT (4/23)
Length of Visible Light 14h 43m
Length of Day
13h 43m
Waxing Crescent, 5% of the Moon is Illuminated
Apr 23
Waxing Crescent
Apr 29
First Quarter
May 5
Full
May 12
Last Quarter
May 20
New

Hourly Weather History & Observations

Time (EDT) Temp. Windchill Dew Point Humidity Pressure Visibility Wind Dir Wind Speed Gust Speed Precip Events Conditions
12:13 AM 42.8 °F 38.6 °F 21.2 °F 42% 29.90 in 10.0 mi NNW 6.9 mph - N/A   Clear
12:33 AM 42.8 °F 38.6 °F 21.2 °F 42% 29.90 in 10.0 mi NNW 6.9 mph - N/A   Clear
12:53 AM 41.0 °F 37.1 °F 21.2 °F 45% 29.89 in 10.0 mi NNW 5.8 mph - N/A   Clear
1:13 AM 39.2 °F 33.6 °F 21.2 °F 49% 29.88 in 10.0 mi NNW 8.1 mph - N/A   Clear
1:33 AM 41.0 °F 36.4 °F 21.2 °F 45% 29.87 in 10.0 mi NNW 6.9 mph - N/A   Clear
1:53 AM 41.0 °F 35.2 °F 21.2 °F 45% 29.86 in 10.0 mi NNW 9.2 mph - N/A   Clear
2:13 AM 39.2 °F 34.2 °F 21.2 °F 49% 29.86 in 10.0 mi NNW 6.9 mph - N/A   Clear
2:34 AM 39.2 °F 33.0 °F 21.2 °F 49% 29.85 in 10.0 mi NNW 9.2 mph - N/A   Clear
2:54 AM 41.0 °F 35.2 °F 21.2 °F 45% 29.84 in 10.0 mi North 9.2 mph - N/A   Clear
3:14 AM 41.0 °F 34.7 °F 21.2 °F 45% 29.83 in 10.0 mi North 10.4 mph 16.1 mph N/A   Clear
3:34 AM 39.2 °F 33.6 °F 21.2 °F 49% 29.83 in 10.0 mi NNW 8.1 mph - N/A   Clear
3:54 AM 39.2 °F 33.0 °F 21.2 °F 49% 29.83 in 10.0 mi NNW 9.2 mph - N/A   Clear
4:14 AM 39.2 °F 33.0 °F 21.2 °F 49% 29.82 in 10.0 mi NNW 9.2 mph - N/A   Clear
4:34 AM 39.2 °F 33.6 °F 21.2 °F 49% 29.82 in 10.0 mi NNW 8.1 mph - N/A   Clear
4:54 AM 39.2 °F 32.5 °F 21.2 °F 49% 29.81 in 10.0 mi NNW 10.4 mph - N/A   Clear
5:15 AM 39.2 °F 32.5 °F 23.0 °F 52% 29.80 in 10.0 mi NNW 10.4 mph - N/A   Clear
5:35 AM 39.2 °F 32.0 °F 24.8 °F 56% 29.80 in 10.0 mi NNW 11.5 mph 16.1 mph N/A   Clear
5:55 AM 39.2 °F 32.5 °F 24.8 °F 56% 29.80 in 10.0 mi NNW 10.4 mph - N/A   Clear
6:35 AM 39.2 °F 33.0 °F 24.8 °F 56% 29.79 in 10.0 mi NNW 9.2 mph - N/A   Clear
6:50 AM 39.2 °F 32.5 °F 24.8 °F 56% 29.79 in 10.0 mi NNW 10.4 mph 19.6 mph N/A   Clear
7:10 AM 39.2 °F 32.5 °F 24.8 °F 56% 29.79 in 10.0 mi NW 10.4 mph - N/A   Clear
7:30 AM 39.2 °F 31.2 °F 24.8 °F 56% 29.79 in 5.0 mi NW 13.8 mph - N/A   Haze
7:51 AM 41.0 °F 33.1 °F 24.8 °F 53% 29.79 in 10.0 mi NNW 15.0 mph 19.6 mph N/A   Clear
8:11 AM 42.8 °F 35.1 °F 24.8 °F 49% 29.78 in 10.0 mi NNW 16.1 mph 21.9 mph N/A   Clear
8:31 AM 42.8 °F 35.4 °F 24.8 °F 49% 29.78 in 10.0 mi NNW 15.0 mph 20.7 mph N/A   Clear
8:51 AM 44.6 °F 38.1 °F 24.8 °F 46% 29.78 in 10.0 mi NNW 13.8 mph 18.4 mph N/A   Clear
9:11 AM 46.4 °F 39.8 °F 24.8 °F 43% 29.77 in 10.0 mi NNW 16.1 mph 25.3 mph N/A   Clear
9:31 AM 46.4 °F 38.7 °F 23.0 °F 40% 29.77 in 10.0 mi NNW 20.7 mph 25.3 mph N/A   Clear
9:51 AM 48.2 °F - 21.2 °F 34% 29.76 in 10.0 mi NNW 19.6 mph 28.8 mph N/A   Clear
10:11 AM 50.0 °F - 19.4 °F 30% 29.75 in 10.0 mi North 23.0 mph 33.4 mph N/A   Clear
10:32 AM 50.0 °F - 17.6 °F 28% 29.74 in 10.0 mi North 29.9 mph 36.8 mph N/A   Clear
10:52 AM 51.8 °F - 17.6 °F 26% 29.73 in 10.0 mi North 24.2 mph 39.1 mph N/A   Clear
11:12 AM 51.8 °F - 17.6 °F 26% 29.73 in 10.0 mi North 21.9 mph 38.0 mph N/A   Clear
11:32 AM 51.8 °F - 17.6 °F 26% 29.72 in 10.0 mi North 24.2 mph 32.2 mph N/A   Clear
11:52 AM 53.6 °F - 17.6 °F 24% 29.72 in 10.0 mi North 24.2 mph 35.7 mph N/A   Clear
12:12 PM 53.6 °F - 17.6 °F 24% 29.71 in 10.0 mi NNW 24.2 mph 32.2 mph N/A   Clear
12:32 PM 53.6 °F - 15.8 °F 22% 29.70 in 10.0 mi North 23.0 mph 34.5 mph N/A   Clear
12:52 PM 53.6 °F - 12.2 °F 19% 29.70 in 10.0 mi North 27.6 mph 34.5 mph N/A   Clear
1:12 PM 55.4 °F - 12.2 °F 18% 29.70 in 10.0 mi NNW 20.7 mph 38.0 mph N/A   Clear
1:33 PM 55.4 °F - 12.2 °F 18% 29.69 in 10.0 mi NNW 21.9 mph 33.4 mph N/A   Clear
1:53 PM 55.4 °F - 12.2 °F 18% 29.68 in 10.0 mi NNW 23.0 mph 34.5 mph N/A   Clear
2:13 PM 55.4 °F - 12.2 °F 18% 29.68 in 10.0 mi NNW 20.7 mph 31.1 mph N/A   Clear
2:33 PM 55.4 °F - 10.4 °F 17% 29.68 in 10.0 mi NNW 24.2 mph 39.1 mph N/A   Clear
3:13 PM 55.4 °F - 12.2 °F 18% 29.66 in 10.0 mi North 17.3 mph 35.7 mph N/A   Clear
3:30 PM 57.2 °F - 14.0 °F 18% 29.66 in 10.0 mi NW 26.5 mph 31.1 mph N/A   Clear
3:51 PM 57.2 °F - 10.4 °F 16% 29.65 in 10.0 mi NNW 24.2 mph 33.4 mph N/A   Clear
4:11 PM 57.2 °F - 12.2 °F 17% 29.64 in 10.0 mi NNW 23.0 mph 32.2 mph N/A   Clear
4:31 PM 59.0 °F - 12.2 °F 16% 29.64 in 10.0 mi North 19.6 mph 28.8 mph N/A   Clear
4:51 PM 57.2 °F - 12.2 °F 17% 29.63 in 10.0 mi NNW 24.2 mph 31.1 mph N/A   Clear
5:11 PM 57.2 °F - 12.2 °F 17% 29.62 in 10.0 mi NNW 18.4 mph 28.8 mph N/A   Clear
5:31 PM 57.2 °F - 10.4 °F 16% 29.62 in 10.0 mi NNW 20.7 mph 29.9 mph N/A   Clear
5:51 PM 57.2 °F - 10.4 °F 16% 29.62 in 10.0 mi NNW 18.4 mph 35.7 mph N/A   Clear
6:11 PM 57.2 °F - 10.4 °F 16% 29.62 in 10.0 mi NNW 20.7 mph 28.8 mph N/A   Clear
6:32 PM 57.2 °F - 10.4 °F 16% 29.62 in 10.0 mi NNW 16.1 mph 27.6 mph N/A   Clear
6:52 PM 57.2 °F - 8.6 °F 14% 29.61 in 10.0 mi NNW 16.1 mph 26.5 mph N/A   Clear
7:12 PM 57.2 °F - 12.2 °F 17% 29.61 in 10.0 mi NW 16.1 mph 26.5 mph N/A   Clear
7:32 PM 55.4 °F - 12.2 °F 18% 29.61 in 10.0 mi NW 17.3 mph 27.6 mph N/A   Clear
7:52 PM 55.4 °F - 14.0 °F 20% 29.61 in 10.0 mi NW 23.0 mph 32.2 mph N/A   Clear
8:12 PM 53.6 °F - 14.0 °F 21% 29.61 in 10.0 mi NW 17.3 mph 26.5 mph N/A   Clear
8:32 PM 51.8 °F - 14.0 °F 22% 29.62 in 10.0 mi NW 15.0 mph 23.0 mph N/A   Clear
8:52 PM 51.8 °F - 12.2 °F 21% 29.62 in 10.0 mi NW 18.4 mph 24.2 mph N/A   Clear
9:13 PM 51.8 °F - 12.2 °F 21% 29.62 in 10.0 mi NW 17.3 mph 23.0 mph N/A   Clear
9:33 PM 51.8 °F - 10.4 °F 19% 29.62 in 10.0 mi NW 12.7 mph 18.4 mph N/A   Clear
9:53 PM 50.0 °F - 12.2 °F 22% 29.62 in 10.0 mi NW 11.5 mph - N/A   Clear
10:13 PM 48.2 °F - 12.2 °F 24% 29.61 in 10.0 mi NW 13.8 mph 20.7 mph N/A   Clear
10:33 PM 48.2 °F - 10.4 °F 22% 29.61 in 10.0 mi NW 13.8 mph 21.9 mph N/A   Clear
10:53 PM 48.2 °F - 10.4 °F 22% 29.61 in 10.0 mi NW 12.7 mph - N/A   Clear
11:13 PM 48.2 °F - 10.4 °F 22% 29.60 in 10.0 mi NW 12.7 mph 18.4 mph N/A   Clear
11:33 PM 46.4 °F 40.7 °F 12.2 °F 25% 29.60 in 10.0 mi NW 12.7 mph 19.6 mph N/A   Clear
11:54 PM 46.4 °F 40.7 °F 12.2 °F 25% 29.60 in 10.0 mi WNW 12.7 mph - N/A   Clear